Location: Unspecified
(38.9820°N, 94.4650°W)
Time: 22:16:52
(UTC-05:00)

Hubble Space Telescope - Visible Passes

Search period start: 22 October 2019 00:00
Search period end: 01 November 2019 00:00
Orbit: 536 x 540 km, 28.5° (Epoch: 21 October)

Date Brightness Start Highest point End Pass type
(mag) Time Alt. Az. Time Alt. Az. Time Alt. Az.
29 Oct 3.5 06:04:52 10° S 06:05:58 11° SSE 06:07:02 10° SSE visible
30 Oct 3.3 05:53:46 11° S 05:55:15 13° SSE 05:57:04 10° SE visible
31 Oct 3.1 05:44:00 14° S 05:44:33 14° SSE 05:46:48 10° SE visible
